WXM80 ListenWXM80 Stop

You find our weather info also at:

UK Metoffice

WeatherCloud

Weather Underground

Northeastern Weather Network

AWEKAS

Citizen Weather Observer Program (CWOP)

HAMweather, WeatherForYou, PWS Weather


Weather Underground History page Text

Daily Summary for December 1, 2017 Units:  Metric    English   Both
« Previous Day
Next Day »
Daily Weekly Monthly Yearly Custom
  High: Low: Average:
Temperature: 11.3 °C 5.7 °C 8.8 °C
Dew Point: 9.1 °C 0.7 °C 4.5 °C
Humidity: 92 % 58 % 75 %
Wind Speed: 17.4 km/h 0 km/h 6.8 km/h
Wind Gust: 32.2 km/h - -
Wind:- - South
Pressure: 1026.3 hPa 1016.1 hPa -
Precipitation: 0 mm    
Historical Graphs
 
 
Tabular Data for December 1, 2017
Time Temperature Dew Point Pressure Wind Wind Speed Wind Gust Humidity Rainfall Rate (Hourly)
00:01 10.3 °C 9.1 °C 1016.8 hPa Calm     92 % 0 mm
00:11 10.3 °C 9.1 °C 1016.5 hPa Calm     92 % 0 mm
00:16 10.3 °C 9.1 °C 1016.5 hPa Calm     92 % 0 mm
00:26 10.2 °C 9 °C 1016.5 hPa WSW 3.4 km/h 5.6 km/h 92 % 0 mm
00:36 10.2 °C 9 °C 1016.5 hPa SSW 0.3 km/h 5.6 km/h 92 % 0 mm
00:41 10.2 °C 8.9 °C 1016.1 hPa SSW 0.5 km/h 3.7 km/h 92 % 0 mm
00:46 10.2 °C 8.9 °C 1016.1 hPa SSW 1.1 km/h 3.7 km/h 92 % 0 mm
00:56 10.1 °C 8.9 °C 1016.1 hPa SSW 0.3 km/h 5.6 km/h 92 % 0 mm
01:06 10 °C 8.8 °C 1016.1 hPa SSW 1.1 km/h 5.6 km/h 92 % 0 mm
01:11 10 °C 8.8 °C 1016.1 hPa SSW 1.1 km/h 5.6 km/h 92 % 0 mm
01:16 9.9 °C 8.7 °C 1016.5 hPa SW 3.1 km/h 6.4 km/h 92 % 0 mm
01:26 9.9 °C 8.7 °C 1016.1 hPa Calm     92 % 0 mm
01:31 9.8 °C 8.6 °C 1016.1 hPa SW 0.5 km/h 1.9 km/h 92 % 0 mm
01:41 9.8 °C 8.6 °C 1016.1 hPa SSW 1.8 km/h 5.6 km/h 92 % 0 mm
01:46 9.8 °C 8.6 °C 1016.1 hPa SSW 0.2 km/h 3.7 km/h 92 % 0 mm
01:51 9.8 °C 8.6 °C 1016.1 hPa SW 1.1 km/h 3.2 km/h 92 % 0 mm
01:56 9.8 °C 8.6 °C 1016.5 hPa WSW 2.3 km/h 3.7 km/h 92 % 0 mm
02:01 9.8 °C 8.6 °C 1016.1 hPa WSW 0.2 km/h 1.9 km/h 92 % 0 mm
02:06 9.7 °C 8.5 °C 1016.1 hPa WSW 2.4 km/h 3.7 km/h 92 % 0 mm
02:11 9.7 °C 8.5 °C 1016.5 hPa West 1.8 km/h 5.6 km/h 92 % 0 mm
02:16 9.8 °C 8.6 °C 1016.1 hPa WSW 1.6 km/h 5.6 km/h 92 % 0 mm
02:21 9.8 °C 8.6 °C 1016.1 hPa Calm     92 % 0 mm
02:26 9.8 °C 8.6 °C 1016.5 hPa WSW 2.3 km/h 5.6 km/h 92 % 0 mm
02:31 9.8 °C 8.6 °C 1016.1 hPa WSW 2.9 km/h 5.6 km/h 92 % 0 mm
02:36 9.8 °C 8.6 °C 1016.5 hPa WSW 2.3 km/h 5.6 km/h 92 % 0 mm
02:42 9.8 °C 8.6 °C 1016.1 hPa WSW 0.3 km/h 5.6 km/h 92 % 0 mm
02:47 9.8 °C 8.6 °C 1016.5 hPa WSW 1.9 km/h 8 km/h 92 % 0 mm
02:52 9.8 °C 8.6 °C 1016.1 hPa WSW 5.5 km/h 7.4 km/h 92 % 0 mm
02:57 9.8 °C 8.6 °C 1016.1 hPa Calm   7.4 km/h 92 % 0 mm
03:02 9.8 °C 8.6 °C 1016.5 hPa WSW 2.9 km/h 8 km/h 92 % 0 mm
03:07 9.8 °C 8.6 °C 1016.5 hPa West 2.3 km/h 5.6 km/h 92 % 0 mm
03:12 9.8 °C 8.6 °C 1016.5 hPa SW 2.6 km/h 5.6 km/h 92 % 0 mm
03:17 9.8 °C 8.6 °C 1016.1 hPa Calm     92 % 0 mm
03:22 9.8 °C 8.6 °C 1016.5 hPa West 0.2 km/h 1.9 km/h 92 % 0 mm
03:27 9.8 °C 8.6 °C 1016.5 hPa West 0.2 km/h 5.6 km/h 92 % 0 mm
03:32 9.8 °C 8.6 °C 1016.5 hPa SW 4.7 km/h 7.4 km/h 92 % 0 mm
03:42 9.8 °C 8.6 °C 1016.5 hPa WNW 0.5 km/h 1.9 km/h 92 % 0 mm
03:47 9.7 °C 8.5 °C 1016.5 hPa WNW 0.5 km/h 5.6 km/h 92 % 0 mm
03:52 9.7 °C 8.3 °C 1016.5 hPa Calm     91 % 0 mm
03:57 9.6 °C 8.2 °C 1016.8 hPa WNW 1.4 km/h 3.7 km/h 91 % 0 mm
04:02 9.5 °C 8.1 °C 1016.8 hPa West 0.2 km/h 1.9 km/h 91 % 0 mm
04:07 9.4 °C 8.1 °C 1016.5 hPa WNW 1.4 km/h 4.8 km/h 91 % 0 mm
04:12 9.3 °C 7.9 °C 1016.5 hPa WNW 4.5 km/h 9.7 km/h 91 % 0 mm
04:17 9.2 °C 7.8 °C 1016.8 hPa WNW 1.4 km/h 6.4 km/h 91 % 0 mm
04:22 9.1 °C 7.6 °C 1016.8 hPa West 5.1 km/h 9.7 km/h 90 % 0 mm
04:27 9 °C 7.4 °C 1016.8 hPa NW 4.7 km/h 7.4 km/h 90 % 0 mm
04:42 8.8 °C 7.3 °C 1016.8 hPa WSW 0.3 km/h 1.6 km/h 90 % 0 mm
04:47 8.8 °C 7.2 °C 1017.2 hPa WSW 4.5 km/h 7.4 km/h 90 % 0 mm
04:52 8.7 °C 7.3 °C 1017.2 hPa West 4.3 km/h 6.4 km/h 91 % 0 mm
04:58 8.7 °C 7.1 °C 1017.2 hPa West 3.1 km/h 5.6 km/h 90 % 0 mm
05:03 8.6 °C 7.2 °C 1017.2 hPa WNW 5.5 km/h 8 km/h 91 % 0 mm
05:08 8.6 °C 7.2 °C 1017.2 hPa WNW 9.2 km/h 16.7 km/h 91 % 0 mm
05:13 8.6 °C 7.2 °C 1017.5 hPa West 4.8 km/h 7.4 km/h 91 % 0 mm
05:18 8.5 °C 7.1 °C 1017.5 hPa NW 4.8 km/h 11.1 km/h 91 % 0 mm
05:23 8.4 °C 6.9 °C 1017.5 hPa WSW 1.9 km/h 13 km/h 90 % 0 mm
05:28 8.4 °C 6.9 °C 1017.8 hPa WNW 6.4 km/h 13 km/h 90 % 0 mm
05:33 8.4 °C 6.8 °C 1017.8 hPa WNW 11.6 km/h 18.5 km/h 90 % 0 mm
05:38 8.3 °C 6.8 °C 1017.8 hPa WNW 5.5 km/h 14.8 km/h 90 % 0 mm
05:43 8.3 °C 6.7 °C 1017.8 hPa WNW 6.1 km/h 11.1 km/h 90 % 0 mm
05:53 8.2 °C 6.7 °C 1018.2 hPa WNW 2.1 km/h 5.6 km/h 90 % 0 mm
06:03 8.1 °C 6.4 °C 1018.2 hPa WNW 7.6 km/h 14.8 km/h 89 % 0 mm
06:08 8.1 °C 6.3 °C 1018.5 hPa NW 3.4 km/h 8 km/h 89 % 0 mm
06:18 7.9 °C 6.2 °C 1018.5 hPa NW 3.1 km/h 9.3 km/h 89 % 0 mm
06:23 7.9 °C 6.2 °C 1018.8 hPa NW 5.3 km/h 13 km/h 89 % 0 mm
06:28 7.9 °C 6.2 °C 1018.8 hPa NW 5.5 km/h 11.1 km/h 89 % 0 mm
06:33 7.9 °C 6.2 °C 1019.2 hPa NW 1 km/h 4.8 km/h 89 % 0 mm
06:38 7.8 °C 5.9 °C 1019.2 hPa NW 6.1 km/h 14.8 km/h 88 % 0 mm
06:43 7.8 °C 5.9 °C 1019.2 hPa NW 2.6 km/h 7.4 km/h 88 % 0 mm
06:48 7.8 °C 5.7 °C 1019.2 hPa WNW 5.3 km/h 13 km/h 87 % 0 mm
06:53 7.8 °C 5.7 °C 1019.2 hPa NNW 4.7 km/h 9.3 km/h 87 % 0 mm
06:58 7.7 °C 5.7 °C 1019.5 hPa WNW 5.3 km/h 11.1 km/h 87 % 0 mm
07:03 7.7 °C 5.7 °C 1019.9 hPa NNW 6.8 km/h 11.3 km/h 87 % 0 mm
07:08 7.7 °C 5.7 °C 1019.9 hPa NW 2.4 km/h 13 km/h 87 % 0 mm
07:13 7.7 °C 5.7 °C 1019.9 hPa NW 5.3 km/h 11.1 km/h 87 % 0 mm
07:18 7.6 °C 5.6 °C 1019.9 hPa NW 1.6 km/h 5.6 km/h 87 % 0 mm
07:24 7.6 °C 5.6 °C 1019.9 hPa WNW 4.7 km/h 9.3 km/h 87 % 0 mm
07:29 7.6 °C 5.4 °C 1020.2 hPa NNW 3.9 km/h 5.6 km/h 86 % 0 mm
07:34 7.5 °C 5.3 °C 1020.2 hPa North 5.5 km/h 9.3 km/h 86 % 0 mm
07:44 7.5 °C 5.3 °C 1020.2 hPa NW 4.2 km/h 9.3 km/h 86 % 0 mm
07:49 7.5 °C 5.3 °C 1020.2 hPa WNW 6.4 km/h 9.3 km/h 86 % 0 mm
07:54 7.5 °C 5.3 °C 1020.2 hPa NNW 2.9 km/h 7.4 km/h 86 % 0 mm
07:59 7.6 °C 5.4 °C 1020.5 hPa NW 1.6 km/h 5.6 km/h 86 % 0 mm
08:04 7.6 °C 5.4 °C 1020.5 hPa NNE 3.5 km/h 9.7 km/h 86 % 0 mm
08:09 7.6 °C 5.2 °C 1020.5 hPa NW 3.4 km/h 7.4 km/h 85 % 0 mm
08:14 7.7 °C 5.3 °C 1020.5 hPa NW 3.2 km/h 5.6 km/h 85 % 0 mm
08:19 7.7 °C 5.3 °C 1020.5 hPa NW 5 km/h 9.3 km/h 85 % 0 mm
08:24 7.8 °C 5.2 °C 1020.9 hPa NW 6 km/h 12.9 km/h 84 % 0 mm
08:35 7.9 °C 5.2 °C 1020.9 hPa NNW 5.3 km/h 11.1 km/h 83 % 0 mm
08:40 7.9 °C 5.2 °C 1021.2 hPa North 5.5 km/h 7.4 km/h 83 % 0 mm
08:50 8.1 °C 5.3 °C 1021.2 hPa North 2.3 km/h 5.6 km/h 83 % 0 mm
08:55 8.1 °C 5.6 °C 1021.2 hPa North 1.4 km/h 5.6 km/h 84 % 0 mm
09:00 8.2 °C 5.5 °C 1021.2 hPa NNW 5.6 km/h 8 km/h 83 % 0 mm
09:15 8.7 °C 5.8 °C 1021.2 hPa NNW 1 km/h 3.7 km/h 82 % 0 mm
09:20 8.8 °C 5.7 °C 1021.2 hPa NW 5.6 km/h 11.1 km/h 81 % 0 mm
09:25 9.1 °C 5.8 °C 1021.6 hPa NW 4.5 km/h 11.1 km/h 80 % 0 mm
09:30 9.2 °C 5.8 °C 1021.2 hPa NNE 4.7 km/h 9.7 km/h 79 % 0 mm
09:40 9.6 °C 5.8 °C 1021.6 hPa NNE 3.5 km/h 13 km/h 77 % 0 mm
09:45 9.8 °C 5.9 °C 1021.6 hPa WNW 1.9 km/h 5.6 km/h 77 % 0 mm
09:55 10.2 °C 5.7 °C 1021.6 hPa WNW 2.1 km/h 9.3 km/h 74 % 0 mm
10:00 10.3 °C 5.8 °C 1021.6 hPa NW 4 km/h 11.1 km/h 74 % 0 mm
10:06 10.5 °C 6.1 °C 1021.6 hPa NNW 8 km/h 11.3 km/h 74 % 0 mm
10:11 10.7 °C 6.2 °C 1021.6 hPa NNW 4.8 km/h 9.7 km/h 74 % 0 mm
10:22 11 °C 5.5 °C 1021.6 hPa NNW 5 km/h 13 km/h 69 % 0 mm
10:29 11.1 °C 5.4 °C 1021.6 hPa NNE 8.9 km/h 14.8 km/h 68 % 0 mm
10:34 11.1 °C 5.2 °C 1021.6 hPa NE 8.4 km/h 11.3 km/h 67 % 0 mm
10:44 11.1 °C 4.1 °C 1021.6 hPa NNE 13.5 km/h 24.1 km/h 62 % 0 mm
10:49 11.1 °C 4.1 °C 1021.6 hPa NNE 9 km/h 18.5 km/h 62 % 0 mm
10:59 10.9 °C 3.7 °C 1021.6 hPa North 6.1 km/h 16.7 km/h 61 % 0 mm
11:15 10.8 °C 3.6 °C 1021.2 hPa NNW 6.9 km/h 11.3 km/h 61 % 0 mm
11:20 10.8 °C 3.8 °C 1021.2 hPa North 6.6 km/h 11.1 km/h 62 % 0 mm
11:25 10.8 °C 3.8 °C 1021.2 hPa NW 4.2 km/h 13 km/h 62 % 0 mm
11:41 10.8 °C 3.8 °C 1021.2 hPa NW 6.8 km/h 9.7 km/h 62 % 0 mm
11:46 10.8 °C 4 °C 1021.6 hPa NNW 6.8 km/h 11.1 km/h 63 % 0 mm
11:56 11.1 °C 4.3 °C 1021.6 hPa NNW 6.1 km/h 13 km/h 63 % 0 mm
12:01 11.1 °C 4.1 °C 1021.6 hPa NW 5 km/h 9.3 km/h 62 % 0 mm
12:06 11.1 °C 3.9 °C 1021.6 hPa North 5.8 km/h 13 km/h 61 % 0 mm
12:11 11.2 °C 4.2 °C 1021.6 hPa North 7.2 km/h 11.1 km/h 62 % 0 mm
12:16 11.3 °C 3.8 °C 1021.6 hPa West 10.6 km/h 18.5 km/h 60 % 0 mm
12:21 11.2 °C 3.7 °C 1021.6 hPa NNW 6.3 km/h 11.3 km/h 60 % 0 mm
12:26 11.2 °C 3.9 °C 1021.6 hPa North 6.3 km/h 16.7 km/h 61 % 0 mm
12:30 11.1 °C 4.1 °C 1021.6 hPa North 3.9 km/h 11.1 km/h 62 % 0 mm
12:35 11.1 °C 3.6 °C 1021.6 hPa North 9.2 km/h 16.7 km/h 60 % 0 mm
12:41 11.1 °C 3.8 °C 1021.6 hPa NNW 4.8 km/h 11.3 km/h 61 % 0 mm
12:46 11 °C 4 °C 1021.6 hPa North 4.8 km/h 11.3 km/h 62 % 0 mm
12:51 10.9 °C 3.7 °C 1021.6 hPa NNW 4.8 km/h 16.1 km/h 61 % 0 mm
12:56 10.9 °C 3.9 °C 1021.6 hPa NNW 4.8 km/h 11.3 km/h 62 % 0 mm
13:01 10.9 °C 3.9 °C 1021.6 hPa North 1 km/h 5.6 km/h 62 % 0 mm
13:06 10.8 °C 3.6 °C 1021.2 hPa NNE 6.4 km/h 14.8 km/h 61 % 0 mm
13:11 10.8 °C 3.3 °C 1021.2 hPa North 7.7 km/h 13 km/h 60 % 0 mm
13:16 10.8 °C 3.6 °C 1021.6 hPa NNW 6 km/h 14.8 km/h 61 % 0 mm
13:21 10.8 °C 3.6 °C 1021.2 hPa NNE 10 km/h 16.7 km/h 61 % 0 mm
13:26 10.9 °C 3.7 °C 1021.2 hPa NNE 7.9 km/h 13 km/h 61 % 0 mm
13:31 11.1 °C 3.8 °C 1021.2 hPa North 6.3 km/h 11.1 km/h 61 % 0 mm
13:36 11.1 °C 3.8 °C 1021.2 hPa NNE 6 km/h 14.8 km/h 61 % 0 mm
13:41 11.1 °C 3.6 °C 1021.2 hPa North 9 km/h 16.7 km/h 60 % 0 mm
13:46 11.1 °C 3.3 °C 1021.6 hPa NNE 8.4 km/h 14.8 km/h 59 % 0 mm
13:51 11.1 °C 3.3 °C 1021.6 hPa North 8.7 km/h 13 km/h 59 % 0 mm
14:01 11.1 °C 3.6 °C 1021.6 hPa NW 4.8 km/h 7.4 km/h 60 % 0 mm
14:06 11.1 °C 3.6 °C 1021.6 hPa NNW 4.3 km/h 9.3 km/h 60 % 0 mm
14:11 11 °C 3.1 °C 1021.6 hPa NNE 6.6 km/h 9.3 km/h 58 % 0 mm
14:16 10.8 °C 3.6 °C 1021.6 hPa NNE 5.6 km/h 11.1 km/h 61 % 0 mm
14:21 10.8 °C 3.8 °C 1021.6 hPa North 8.9 km/h 14.8 km/h 62 % 0 mm
14:26 10.7 °C 3.3 °C 1021.6 hPa NNW 10.1 km/h 18.5 km/h 60 % 0 mm
14:36 10.4 °C 3 °C 1021.6 hPa NNW 10.1 km/h 16.7 km/h 60 % 0 mm
14:46 10.2 °C 2.8 °C 1021.6 hPa NNE 8.4 km/h 13 km/h 60 % 0 mm
14:51 10.2 °C 2.7 °C 1021.6 hPa NNW 9.2 km/h 14.8 km/h 60 % 0 mm
14:56 10.1 °C 2.6 °C 1021.6 hPa North 9 km/h 16.7 km/h 60 % 0 mm
15:01 10 °C 2.8 °C 1021.6 hPa NNE 10.8 km/h 13 km/h 61 % 0 mm
15:11 9.8 °C 3.1 °C 1021.9 hPa North 5.1 km/h 11.1 km/h 63 % 0 mm
15:26 9.6 °C 3.3 °C 1021.9 hPa NNW 10.3 km/h 12.9 km/h 65 % 0 mm
15:31 9.5 °C 3 °C 1021.9 hPa North 11.6 km/h 14.8 km/h 64 % 0 mm
15:41 9.4 °C 2.9 °C 1021.9 hPa NNE 6.9 km/h 13 km/h 64 % 0 mm
15:46 9.3 °C 3.1 °C 1022.2 hPa North 7.7 km/h 14.8 km/h 65 % 0 mm
15:57 9.2 °C 3.2 °C 1022.2 hPa NE 9.5 km/h 16.7 km/h 66 % 0 mm
16:07 9 °C 3 °C 1022.6 hPa NNE 6.3 km/h 14.8 km/h 66 % 0 mm
16:17 8.9 °C 2.7 °C 1022.6 hPa NNE 8.5 km/h 13 km/h 65 % 0 mm
16:22 8.8 °C 2.4 °C 1022.6 hPa North 5.8 km/h 14.8 km/h 64 % 0 mm
16:27 8.8 °C 2.6 °C 1022.9 hPa NNE 8.4 km/h 13 km/h 65 % 0 mm
16:32 8.7 °C 2.3 °C 1022.9 hPa North 7.7 km/h 11.3 km/h 64 % 0 mm
16:37 8.7 °C 2.3 °C 1022.9 hPa North 6.3 km/h 11.3 km/h 64 % 0 mm
16:48 8.7 °C 2.3 °C 1022.9 hPa North 9 km/h 18.5 km/h 64 % 0 mm
16:53 8.7 °C 2.2 °C 1022.9 hPa NNE 12.6 km/h 20.4 km/h 64 % 0 mm
17:03 8.7 °C 2.7 °C 1023.2 hPa NNE 8 km/h 12.9 km/h 66 % 0 mm
17:13 8.5 °C 2.3 °C 1023.6 hPa NNE 8.2 km/h 14.8 km/h 65 % 0 mm
17:18 8.4 °C 2.4 °C 1023.6 hPa North 9.5 km/h 13 km/h 66 % 0 mm
17:23 8.4 °C 2.6 °C 1023.9 hPa NE 7.1 km/h 16.7 km/h 67 % 0 mm
17:33 8.3 °C 2.3 °C 1023.9 hPa North 9 km/h 18.5 km/h 66 % 0 mm
17:39 8.2 °C 2 °C 1023.9 hPa NNE 11.3 km/h 20.4 km/h 65 % 0 mm
17:44 8.2 °C 2.2 °C 1023.9 hPa North 13.8 km/h 16.7 km/h 66 % 0 mm
17:54 8.1 °C 1.9 °C 1023.9 hPa North 15.1 km/h 22.2 km/h 65 % 0 mm
17:59 8 °C 1.8 °C 1023.9 hPa NNE 8.2 km/h 13 km/h 65 % 0 mm
18:04 8 °C 1.6 °C 1023.9 hPa NNE 12.6 km/h 18.5 km/h 64 % 0 mm
18:09 7.9 °C 1.6 °C 1024.3 hPa NNE 8.9 km/h 20.4 km/h 64 % 0 mm
18:19 7.9 °C 1.5 °C 1024.3 hPa NNE 7.4 km/h 16.7 km/h 64 % 0 mm
18:29 7.8 °C 1.7 °C 1024.3 hPa NNE 11.6 km/h 19.3 km/h 65 % 0 mm
18:39 7.7 °C 1.6 °C 1024.6 hPa NNE 13.5 km/h 18.5 km/h 65 % 0 mm
18:50 7.7 °C 1.7 °C 1024.6 hPa North 11.4 km/h 16.7 km/h 66 % 0 mm
18:55 7.6 °C 1.4 °C 1024.6 hPa NNE 11.3 km/h 19.3 km/h 65 % 0 mm
19:05 7.5 °C 1.3 °C 1024.6 hPa NNE 12.7 km/h 17.7 km/h 65 % 0 mm
19:10 7.4 °C 1.3 °C 1024.6 hPa NE 13.5 km/h 18.5 km/h 65 % 0 mm
19:15 7.4 °C 1.5 °C 1024.6 hPa NE 8.9 km/h 12.9 km/h 66 % 0 mm
19:20 7.4 °C 1.4 °C 1024.6 hPa NNE 10.6 km/h 16.7 km/h 66 % 0 mm
19:25 7.3 °C 1.4 °C 1024.6 hPa NNE 11.1 km/h 24.1 km/h 66 % 0 mm
19:30 7.3 °C 1.3 °C 1024.6 hPa NNE 14 km/h 22.2 km/h 66 % 0 mm
19:36 7.2 °C 1.3 °C 1024.9 hPa NNE 12.9 km/h 20.9 km/h 66 % 0 mm
19:41 7.2 °C 1.3 °C 1024.9 hPa NNE 12.9 km/h 20.9 km/h 66 % 0 mm
19:46 7.2 °C 1.3 °C 1024.9 hPa NNE 12.9 km/h 20.9 km/h 66 % 0 mm
19:55 7.1 °C 0.8 °C 1024.9 hPa NNE 12.9 km/h 24.1 km/h 64 % 0 mm
20:01 7.1 °C 0.9 °C 1024.9 hPa NNE 13.8 km/h 14.8 km/h 65 % 0 mm
20:11 7.1 °C 0.9 °C 1024.9 hPa NNE 14.5 km/h 19.3 km/h 65 % 0 mm
20:15 7.1 °C 1.1 °C 1025.3 hPa NNE 12.9 km/h 19.3 km/h 66 % 0 mm
20:21 7 °C 1.3 °C 1025.3 hPa NNE 11.3 km/h 19.3 km/h 67 % 0 mm
20:25 6.9 °C 1 °C 1025.3 hPa North 9 km/h 18.5 km/h 66 % 0 mm
20:30 6.9 °C 1 °C 1025.3 hPa NNE 10.6 km/h 14.8 km/h 66 % 0 mm
20:36 6.9 °C 0.9 °C 1025.3 hPa NNE 12.9 km/h 20.9 km/h 66 % 0 mm
20:40 6.9 °C 0.9 °C 1025.3 hPa NNE 11.3 km/h 22.5 km/h 66 % 0 mm
20:50 6.9 °C 0.9 °C 1025.3 hPa NNE 12.2 km/h 19.3 km/h 66 % 0 mm
20:55 6.8 °C 0.9 °C 1025.3 hPa NNE 11.3 km/h 18.5 km/h 66 % 0 mm
21:06 6.8 °C 0.9 °C 1025.3 hPa NNE 14.5 km/h 25.7 km/h 66 % 0 mm
21:10 6.8 °C 1.1 °C 1025.3 hPa NNE 12.9 km/h 24.1 km/h 67 % 0 mm
21:16 6.8 °C 1.1 °C 1025.3 hPa NNE 16.1 km/h 25.7 km/h 67 % 0 mm
21:21 6.8 °C 1.3 °C 1025.3 hPa NNE 14.5 km/h 22.5 km/h 68 % 0 mm
21:35 6.8 °C 1.3 °C 1025.3 hPa North 12.1 km/h 20.4 km/h 68 % 0 mm
21:41 6.7 °C 1.2 °C 1025.6 hPa NNE 9.7 km/h 19.3 km/h 68 % 0 mm
21:45 6.7 °C 1.2 °C 1025.3 hPa NNE 12.9 km/h 24.1 km/h 68 % 0 mm
21:55 6.6 °C 0.9 °C 1025.3 hPa NNE 14.5 km/h 32.2 km/h 67 % 0 mm
22:06 6.6 °C 1.1 °C 1025.6 hPa NNE 11.3 km/h 18.5 km/h 68 % 0 mm
22:11 6.6 °C 1.1 °C 1025.6 hPa NNE 16.4 km/h 22.2 km/h 68 % 0 mm
22:16 6.5 °C 1 °C 1025.6 hPa NE 14.2 km/h 18.5 km/h 68 % 0 mm
22:21 6.5 °C 1.2 °C 1025.6 hPa NNE 15.3 km/h 24.1 km/h 69 % 0 mm
22:23 6.5 °C 1 °C 1025.6 hPa NNE 12.7 km/h 18.5 km/h 68 % 0 mm
22:26 6.5 °C 1.2 °C 1025.6 hPa NNE 14.6 km/h 18.5 km/h 69 % 0 mm
22:27 6.5 °C 1.2 °C 1025.6 hPa NNE 13.5 km/h 20.4 km/h 69 % 0 mm
22:32 6.4 °C 1.2 °C 1025.6 hPa NNE 13.8 km/h 20.4 km/h 69 % 0 mm
22:42 6.4 °C 1.1 °C 1025.6 hPa North 10.9 km/h 22.2 km/h 69 % 0 mm
22:47 6.3 °C 0.8 °C 1025.6 hPa NE 14.6 km/h 22.2 km/h 68 % 0 mm
22:57 6.2 °C 0.9 °C 1026 hPa NNE 17.4 km/h 25.9 km/h 69 % 0 mm
23:03 6.2 °C 0.9 °C 1026 hPa North 15.1 km/h 20.4 km/h 69 % 0 mm
23:08 6.2 °C 0.9 °C 1026 hPa NNE 14.3 km/h 20.4 km/h 69 % 0 mm
23:13 6.2 °C 0.9 °C 1026 hPa NE 9.7 km/h 18.5 km/h 69 % 0 mm
23:23 6.1 °C 1.1 °C 1026.3 hPa NNE 14 km/h 18.5 km/h 70 % 0 mm
23:28 6.1 °C 1 °C 1026.3 hPa NNW 10.6 km/h 14.8 km/h 70 % 0 mm
23:33 6 °C 0.9 °C 1026.3 hPa NNE 9.7 km/h 16.7 km/h 70 % 0 mm
23:39 5.9 °C 1.1 °C 1026.3 hPa NNE 10.8 km/h 18.5 km/h 71 % 0 mm
23:44 5.9 °C 0.8 °C 1026 hPa NNE 9.3 km/h 22.2 km/h 70 % 0 mm
23:49 5.8 °C 1 °C 1026 hPa NE 7.7 km/h 17.7 km/h 71 % 0 mm
23:54 5.8 °C 0.9 °C 1025.6 hPa NE 14.5 km/h 22.2 km/h 71 % 0 mm
23:59 5.7 °C 0.7 °C 1025.6 hPa NNE 9.7 km/h 14.8 km/h 70 % 0 mm
Crab Meadow Weather
Compliments of Weather Underground - 2.5 mb

Script developed by  Jim McMurry - jmcmurry@mwt.net Adapted for the template by  Wim van der Kuil - Leuven-Template.eu

Weather Terms: Gustnado - A gust front tornado. A small, weak, short-lived tornado that occurs along a gust front - the leading edge of a thunderstorm, caused by rain-cooled air flowing out from the storm's downdraft. A gustnado is often visible as a debris cloud or dust whirl.